Dewpoint
31 31 31 31 31 32 33 31 32 34 37 35 36 36 37 39 39 41 39 41 42 45 46 48 50 52 54
31 31 31 31 30 30 30 30 31 32 34 33 35 34 35 36 36 35 36 37 39 44 46 46 47 49 51
30 32 32 32 30 31 29 30 30 33 33 33 34 33 33 34 33 33 33 37 39 42 43 42 42 43 45
29 30 29 30 30 29 29 30 30 30 31 32 33 33 31 32 31 31 32 34 38 38 37 39 40 39 40
29 28 28 27 28 29 28 28 28 30 30 30 29 29 29 31 29 31 32 32 36 35 35 34 34 36 38
27 27 26 27 27 27 27 27 26 31 30 28 29 28 28 27 30 31 32 32 34 35 33 33 34 35 36
28 27 27 28 29 29 29 30 29 29 30 28 28 27 28 26 30 30 31 31 32 31 31 32 33 34 34
27 28 29 29 30 29 29 30 29 29 29 25 26 25 27 27 30 29 29 29 30 30 30 31 32 32 33
30 31 30 30 30 30 27 25 24 25 26 25 25 25 25 24 26 27 28 29 29 30 30 30 30 32 33
27 27 27 27 29 27 26 23 23 24 26 24 24 25 22 24 25 25 25 28 28 28 29 29 30 29 29
25 25 25 24 25 26 26 25 25 25 27 27 27 26 27 26 24 24 25 25 25 25 27 29 29 29 30
24 22 22 24 24 25 26 26 28 26 27 26 26 26 25 24 22 23 23 24 24 24 26 27 30 31 29
22 23 24 24 26 25 25 26 26 27 27 26 26 25 26 24 23 23 22 22 23 24 24 25 24 25 26
23 24 25 24 25 27 26 26 26 25 26 27 26 26 25 26 25 22 22 21 22 22 23 24 25 26 27
24 23 24 23 25 26 26 25 24 24 24 25 26 26 26 25 24 23 22 21 22 22 22 22 24 25 26
25 25 25 25 25 25 25 24 23 22 21 22 23 24 24 24 26 24 23 22 23 23 23 23 23 24 25
26 25 25 25 24 23 23 23 22 22 21 21 21 21 18 16 19 23 21 21 22 22 23 23 22 23 24
Lifted_Index
18 18 18 19 19 19 19 19 19 18 18 19 19 19 18 17 15 13 10 8 7 6 6 6 6 5 5
18 18 18 18 18 18 18 18 18 19 19 19 19 19 18 18 17 16 15 12 10 8 8 8 8 8 7
17 18 18 18 18 18 18 18 18 19 19 19 19 19 19 19 19 19 19 18 16 13 12 12 12 12 12
17 17 17 18 18 17 17 18 18 19 19 19 19 20 20 20 20 20 20 20 19 18 17 16 16 15 15
16 16 16 17 17 17 17 17 18 18 19 19 19 20 20 20 20 20 20 20 20 20 20 20 19 17 17
16 16 16 16 16 16 16 16 17 18 19 19 19 20 20 20 21 20 20 20 19 20 20 21 20 19 19
16 16 16 17 17 17 17 17 18 19 19 19 19 20 20 20 20 20 19 19 19 19 20 21 21 21 21
16 16 17 17 17 17 17 18 18 19 19 19 19 19 19 19 19 19 18 18 18 19 19 20 20 20 21
17 17 18 18 18 18 17 17 16 17 18 17 17 17 16 16 17 17 17 17 18 18 19 19 19 20 20
16 17 18 18 18 17 17 16 15 15 15 15 15 14 13 13 14 15 15 16 17 18 18 19 19 19 19
16 16 17 17 17 17 16 15 14 14 14 14 14 13 12 12 12 13 14 14 15 16 17 18 18 18 18
15 15 16 16 15 15 15 15 14 14 14 14 13 12 12 11 10 11 12 12 13 14 16 17 18 18 18
14 14 15 14 14 14 14 14 14 13 14 14 13 13 12 10 10 10 10 11 12 13 14 15 16 17 17
14 14 14 13 13 13 13 12 12 12 13 13 13 13 12 11 10 9 10 10 11 12 13 14 15 16 16
14 13 12 12 12 12 12 12 11 11 11 12 13 12 12 11 10 9 9 10 10 11 12 12 13 14 15
13 13 12 11 11 11 12 11 11 11 11 12 12 12 11 10 10 10 9 9 10 10 11 11 11 12 13
13 12 12 11 11 11 11 11 11 11 12 12 12 11 10 9 10 10 10 9 9 10 10 10 10 11 12